Regional Weather Roundup
Issued by NWS

Home | Current Version | Previous Version | Graphics & Text | Print | Product List | Glossary On
Versions: 1 2 3 4 5 6 7 8 9 10 11 12 13 14 15 16 17 18 19 20 21 22 23 24 25 26 27 28 29 30 31 32 33 34 35 36 37 38 39 40 41 42 43 44 45 46 47 48 49 50
621
ASUS43 KBIS 130610
RWRND

NORTH DAKOTA REGIONAL WEATHER ROUNDUP
NATIONAL WEATHER SERVICE BISMARCK ND
1200 AM CST SAT FEB 13 2016

NOTE: "FAIR" INDICATES FEW OR NO CLOUDS BELOW 12,000 FEET WITH NO
SIGNIFICANT WEATHER AND/OR OBSTRUCTIONS TO VISIBILITY.


NDZ001>003-009>011-017-130700-
NORTHWEST NORTH DAKOTA

CITY           SKY/WX    TMP DP  RH WIND       PRES   REMARKS
WILLISTON      LGT SNOW  12   6  77 SE10G20   30.31F WCI  -1
6HR MIN TEMP:  11; 6HR MAX TEMP:  13; 6HR PCP:  0.02;

MINOT          CLOUDY     5  -4  66 SE8       30.46F WCI  -8
MINOT AFB      CLOUDY     5  -2  73 SE13      30.46F WCI -12
$$

NDZ018>021-031>035-040>046-130700-
SOUTHWEST NORTH DAKOTA

CITY           SKY/WX    TMP DP  RH WIND       PRES   REMARKS
BISMARCK       CLOUDY     5  -5  63 SE9       30.51F WCI  -9
6HR MIN TEMP:   1; 6HR MAX TEMP:   8;

DICKINSON      CLOUDY    10   4  76 SE22      30.27F WCI -10
GARRISON         N/A      5  -2  72 SE13      30.45F WCI -12
6HR MIN TEMP:   2; 6HR MAX TEMP:   7;

HETTINGER ARPT CLOUDY    13   8  81 SE16      30.31F WCI  -3
$$

NDZ004>008-012>016-024-026-027-054-130700-
NORTHEAST NORTH DAKOTA

CITY           SKY/WX    TMP DP  RH WIND       PRES   REMARKS
GRAND FORKS    CLOUDY    -7 -14  71 W3        30.67S
GRND FRKS AFB  CLOUDY   -10 -16  73 W2        30.66S
DEVILS LAKE    CLOUDY   -15 -20  78 SE3       30.58S
$$

NDZ022-023-025-028>030-036>039-047>053-130700-
SOUTHEAST NORTH DAKOTA

CITY           SKY/WX    TMP DP  RH WIND       PRES   REMARKS
FARGO          CLOUDY    -7 -14  71 CALM      30.67F
6HR MIN TEMP:  -8; 6HR MAX TEMP:   0;

JAMESTOWN      CLOUDY    -7 -12  79 CALM      30.58F
$$





USA.gov is the U.S. government's official web portal to all federal, state and local government web resources and services.